TimeEST,TemperatureF,Dew PointF,Humidity,Sea Level PressureIn,VisibilityMPH,Wind Direction,Wind SpeedMPH,Gust SpeedMPH,PrecipitationIn,Events,Conditions,WindDirDegrees,DateUTC
12:51 AM,59.0,57.9,96,30.16,6.0,WSW,6.9,-,N/A,,Clear,240,2013-01-30 05:51:00
1:51 AM,57.9,57.0,97,30.12,5.0,SW,6.9,-,N/A,,Clear,230,2013-01-30 06:51:00
2:51 AM,59.0,57.9,96,30.12,5.0,SW,5.8,-,N/A,,Clear,230,2013-01-30 07:51:00
3:51 AM,57.0,55.9,96,30.09,3.0,SW,4.6,-,N/A,,Clear,220,2013-01-30 08:51:00
4:51 AM,59.0,59.0,100,30.09,4.0,SW,5.8,-,N/A,,Clear,220,2013-01-30 09:51:00
5:51 AM,57.9,57.9,100,30.08,5.0,SSW,8.1,-,N/A,,Clear,200,2013-01-30 10:51:00
6:51 AM,57.9,57.0,97,30.09,5.0,SSW,5.8,-,N/A,,Clear,200,2013-01-30 11:51:00
7:51 AM,60.1,59.0,96,30.09,5.0,SSW,6.9,-,N/A,,Clear,200,2013-01-30 12:51:00
8:51 AM,62.1,59.0,90,30.07,8.0,SSW,9.2,-,N/A,,Clear,200,2013-01-30 13:51:00
9:51 AM,64.0,59.0,84,30.05,8.0,SSW,10.4,-,N/A,,Clear,200,2013-01-30 14:51:00
10:51 AM,66.0,59.0,78,30.04,8.0,SSW,13.8,20.7,N/A,,Clear,210,2013-01-30 15:51:00
11:51 AM,66.0,59.0,78,30.01,7.0,SSW,11.5,-,N/A,,Clear,210,2013-01-30 16:51:00
12:22 PM,66.2,59.0,78,29.99,6.0,SSW,10.4,-,N/A,,Haze,210,2013-01-30 17:22:00
12:51 PM,66.0,60.1,81,29.98,6.0,SSW,13.8,19.6,N/A,,Haze,200,2013-01-30 17:51:00
1:51 PM,66.0,60.1,81,29.96,5.0,SSW,15.0,20.7,N/A,,Haze,210,2013-01-30 18:51:00
2:51 PM,64.9,60.1,84,29.93,5.0,SSW,15.0,21.9,N/A,,Haze,200,2013-01-30 19:51:00
3:04 PM,64.4,60.8,88,29.93,5.0,SSW,15.0,23.0,N/A,,Haze,200,2013-01-30 20:04:00
3:18 PM,64.4,59.0,83,29.93,4.0,SSW,15.0,20.7,N/A,,Haze,200,2013-01-30 20:18:00
3:32 PM,64.4,60.8,88,29.92,4.0,SSW,13.8,21.9,N/A,,Haze,200,2013-01-30 20:32:00
3:51 PM,64.9,60.1,84,29.91,4.0,SSW,17.3,-,N/A,,Haze,200,2013-01-30 20:51:00
4:51 PM,64.0,60.1,87,29.88,4.0,South,15.0,-,N/A,,Overcast,190,2013-01-30 21:51:00
5:51 PM,64.0,61.0,90,29.86,5.0,South,17.3,23.0,N/A,,Overcast,190,2013-01-30 22:51:00
6:33 PM,64.4,60.8,88,29.84,5.0,South,18.4,27.6,N/A,,Overcast,190,2013-01-30 23:33:00
6:51 PM,64.9,61.0,87,29.83,5.0,South,16.1,26.5,N/A,,Overcast,190,2013-01-30 23:51:00
7:10 PM,64.4,60.8,88,29.83,5.0,SSW,17.3,25.3,N/A,,Overcast,200,2013-01-31 00:10:00
7:51 PM,64.9,60.1,84,29.83,5.0,SSW,16.1,25.3,N/A,,Haze,200,2013-01-31 00:51:00
8:51 PM,66.0,60.1,81,29.78,6.0,South,21.9,33.4,N/A,,Haze,190,2013-01-31 01:51:00
9:51 PM,66.9,61.0,81,29.75,5.0,SSW,24.2,33.4,N/A,,Haze,200,2013-01-31 02:51:00
10:51 PM,66.9,61.0,81,29.73,5.0,SSW,21.9,39.1,N/A,,Haze,200,2013-01-31 03:51:00
11:01 PM,66.2,60.8,83,29.72,5.0,South,23.0,35.7,N/A,,Haze,190,2013-01-31 04:01:00
11:51 PM,66.9,61.0,81,29.68,5.0,SSW,25.3,38.0,N/A,,Haze,200,2013-01-31 04:51:00